DW8548 Weather Reports


time (UTC)temp
F
wind
direction
speed
knots
gust
knots
rain 1hr
in
rain 24hr
in
rain mn
in
humidity
%
barometer
mb
20260507014603 62 0 0.0 3.5 0.00 0.00 0.00 65 1031.0
20260507013058 61 0 0.0 4.3 0.00 0.00 0.00 67 1031.2
20260507011551 60 129 0.0 3.5 0.00 0.00 0.00 69 1031.3
20260507010105 59 85 0.9 3.5 0.00 0.00 0.00 72 1031.2
20260507004556 58 86 0.9 5.2 0.00 0.00 0.00 75 1031.4
20260507003419 56 0 0.0 2.6 0.00 0.00 0.00 77 1031.5
20260507001559 54 134 0.9 3.5 0.00 0.00 0.00 78 1031.5
20260507000055 53 92 0.9 4.3 0.00 0.00 0.00 79 1031.6
20260506234554 52 0 0.0 2.6 0.00 0.00 0.00 80 1031.4
20260506233109 51 71 0.0 1.7 0.00 0.00 0.00 80 1031.1
20260506231559 50 0 0.0 2.6 0.00 0.00 0.00 81 1031.1
20260506230056 50 0 0.0 1.7 0.00 0.00 0.00 82 1030.8
20260506224555 49 97 0.0 2.6 0.00 0.00 0.00 83 1030.6
20260506223102 48 80 0.0 1.7 0.00 0.00 0.00 84 1030.3
20260506221558 48 0 0.0 0.0 0.00 0.00 0.00 84 1030.3
20260506220055 48 0 0.0 1.7 0.00 0.00 0.00 86 1030.2
20260506214552 47 0 0.0 1.7 0.00 0.00 0.00 86 1030.2
20260506213112 47 0 0.0 0.0 0.00 0.00 0.00 85 1030.2
20260506211551 47 0 0.0 0.0 0.00 0.00 0.00 84 1030.2
20260506210058 48 0 0.0 0.0 0.00 0.00 0.00 82 1029.9
20260506204555 49 0 0.0 0.0 0.00 0.00 0.00 81 1029.9
20260506203056 49 0 0.0 0.0 0.00 0.00 0.00 80 1029.6
20260506201558 50 0 0.0 1.7 0.00 0.00 0.00 78 1029.6
20260506200051 51 0 0.0 0.0 0.00 0.00 0.00 77 1029.5
20260506194556 51 0 0.0 0.0 0.00 0.00 0.00 75 1029.6
20260506193104 53 0 0.0 0.0 0.00 0.00 0.00 73 1029.5
20260506191555 55 0 0.0 0.9 0.00 0.00 0.00 71 1029.5
20260506190101 55 109 0.0 3.5 0.00 0.00 0.00 70 1029.4
20260506184557 55 64 0.0 4.3 0.00 0.00 0.00 72 1029.5
20260506183055 54 138 0.0 0.9 0.00 0.00 0.00 73 1029.6
20260506181554 54 0 0.0 1.7 0.00 0.00 0.00 73 1029.6
20260506180108 54 0 0.0 2.6 0.00 0.00 0.00 72 1029.6
20260506174556 54 0 0.0 1.7 0.00 0.00 0.00 72 1029.6
20260506173058 55 0 0.0 0.9 0.00 0.00 0.00 71 1029.6
20260506171601 55 0 0.0 1.7 0.00 0.00 0.00 70 1029.5
20260506170105 56 0 0.9 5.2 0.00 0.00 0.00 70 1029.4
20260506164557 56 99 0.0 7.8 0.00 0.00 0.00 70 1029.5
20260506163111 55 0 0.0 3.5 0.00 0.00 0.00 69 1029.5
20260506161606 56 0 0.0 3.5 0.00 0.00 0.00 68 1029.6
20260506160055 56 84 0.0 2.6 0.00 0.00 0.00 68 1029.7
20260506154610 56 79 0.0 2.6 0.00 0.00 0.00 69 1029.6
20260506153107 56 0 0.0 1.7 0.00 0.00 0.00 69 1029.5
20260506151558 56 0 0.0 2.6 0.00 0.00 0.00 70 1029.7
20260506144554 56 0 0.0 3.5 0.00 0.00 0.00 71 1029.6
20260506143103 56 0 0.0 0.9 0.00 0.00 0.00 72 1029.7
20260506141555 56 0 0.0 0.9 0.00 0.00 0.00 72 1029.7
20260506140057 56 0 0.0 0.9 0.00 0.00 0.00 73 1029.5
20260506134554 56 0 0.0 0.9 0.00 0.00 0.00 73 1029.5
20260506133057 57 0 0.0 1.7 0.00 0.00 0.00 72 1029.5
20260506131557 57 0 0.0 1.7 0.00 0.00 0.00 73 1029.4
20260506130053 57 0 0.0 0.9 0.00 0.00 0.00 74 1029.3
20260506124553 57 0 0.0 1.7 0.00 0.00 0.00 74 1029.0
20260506123052 56 0 0.0 0.9 0.00 0.00 0.00 76 1029.0
20260506121553 56 0 0.0 0.9 0.00 0.00 0.00 76 1028.9
20260506120058 57 0 0.0 0.0 0.00 0.00 0.00 76 1028.8
20260506114604 57 0 0.0 0.0 0.00 0.00 0.00 73 1028.7
20260506113053 58 0 0.0 0.0 0.00 0.00 0.00 72 1028.6
20260506111555 59 0 0.0 0.0 0.00 0.00 0.00 71 1028.5
20260506110101 60 0 0.0 0.0 0.00 0.00 0.00 69 1028.5
20260506104557 60 0 0.0 0.0 0.00 0.00 0.00 68 1028.5
20260506103052 61 0 0.0 0.0 0.00 0.00 0.00 66 1028.5
20260506101602 63 0 0.0 1.7 0.00 0.00 0.00 63 1028.3
20260506100057 64 0 0.0 2.6 0.00 0.00 0.00 60 1028.2
20260506094621 65 0 0.0 6.1 0.00 0.00 0.00 58 1028.1
20260506093055 66 88 0.9 6.1 0.00 0.00 0.00 57 1027.9
20260506091554 67 0 0.9 4.3 0.00 0.00 0.00 55 1027.8
20260506090053 68 104 0.9 5.2 0.00 0.00 0.00 55 1027.7
20260506084555 68 112 0.9 7.0 0.00 0.00 0.00 54 1027.7
20260506083059 69 111 0.9 5.2 0.00 0.00 0.00 53 1027.6
20260506081554 69 51 1.7 7.0 0.00 0.00 0.00 52 1027.6
20260506073053 71 102 0.9 8.7 0.00 0.00 0.00 50 1027.5
20260506071557 72 294 1.7 7.0 0.00 0.00 0.00 49 1027.4
20260506070103 73 181 0.9 7.0 0.00 0.00 0.00 49 1027.3
20260506061559 73 86 1.7 8.7 0.00 0.00 0.00 49 1027.2
20260506044557 72 68 0.0 7.8 0.00 0.00 0.00 53 1027.6
20260506043055 72 71 0.0 2.6 0.00 0.00 0.00 53 1027.8
20260506041556 71 78 0.9 5.2 0.00 0.00 0.00 55 1028.3
20260506034608 70 0 0.9 8.7 0.00 0.00 0.00 58 1028.6
20260506033059 68 74 0.9 7.0 0.00 0.00 0.00 61 1028.9
20260506031604 67 123 0.9 7.0 0.00 0.00 0.00 62 1029.0
20260506030054 66 126 1.7 7.8 0.00 0.00 0.00 63 1029.0
20260506024555 65 113 0.9 3.5 0.00 0.00 0.00 65 1029.1
20260506023058 64 114 1.7 7.8 0.00 0.00 0.00 66 1029.1
20260506021558 64 96 1.7 7.0 0.00 0.00 0.00 68 1029.2
20260506020100 63 106 1.7 7.0 0.00 0.00 0.00 67 1029.2